Regional Weather Roundup
Issued by NWS State College, PA

Home | Current Version | Previous Version | Text Only | Print | Product List | Glossary On
Versions: 1 2 3 4 5 6 7 8 9 10 11 12 13 14 15 16 17 18 19 20 21 22 23 24 25 26 27 28 29 30 31 32 33 34 35 36 37 38 39 40 41 42 43 44 45 46 47 48 49 50
000
ASUS41 KCTP 250710
RWRCTP

REGIONAL WEATHER ROUNDUP
NATIONAL WEATHER SERVICE STATE COLLEGE PA
300 AM EDT SAT OCT 25 2014

Note: "fair" indicates few or no clouds below 12,000 feet with no
significant weather and/or obstructions to visibility.

* = STATION THAT DOES NOT REPORT PRECIPITATION /E.G. RAIN...SNOW...ETC/
    THUNDER OR FOG.

PAZ002>004-007>009-013>016-020>023-029>032-250800-
WESTERN PENNSYLVANIA

CITY           SKY/WX    TMP DP  RH WIND       PRES   REMARKS
ERIE           CLOUDY    53  43  68 SW7       29.94S
MEADVILLE      CLOUDY    48  42  80 S6        29.95F
FRANKLIN*      CLOUDY    45  37  76 SW6       29.98S
NEW CASTLE       N/A     42  40  93 CALM      29.99F
BEAVER COUNTY  NOT AVBL
BUTLER*        CLOUDY    46  37  71 CALM      30.00S
PITTSBURGH INT CLOUDY    46  39  76 CALM      29.98F
PITTSBURGH     CLOUDY    48  37  65 S8        29.98F
INDIANA*       CLOUDY    46  39  76 SW3       30.02S
LATROBE        CLOUDY    48  43  81 SW9       30.00F
WASHINGTON CO* CLOUDY    45  39  81 CALM      30.01F
$$

PAZ004>006-010>012-017>019-024>028-033>037-041-042-045-046-049>053-250800-
CENTRAL PENNSYLVANIA

CITY           SKY/WX    TMP DP  RH WIND       PRES   REMARKS
BRADFORD       CLOUDY    47  39  74 W5        29.94S
DUBOIS         CLOUDY    45  38  76 SW5       29.95F
CLEARFIELD     CLOUDY    45  39  79 SW3       29.97S
JOHNSTOWN      CLEAR     45  36  70 SW7       29.98S
ALTOONA        CLEAR     46  38  73 CALM      29.98S
STATE COLLEGE  PTCLDY    49  38  66 SW8       29.96S
WILLIAMSPORT   CLEAR     43  33  68 N6        29.94R
SELINSGROVE    CLEAR     39  37  92 CALM      29.95R
FT INDIANTOWN  CLEAR     55  40  57 VRB6      29.92F
CAPITAL CITY   CLEAR     49  39  68 W7        29.93F
HARRISBURG     CLEAR     48  39  71 N3        29.93S
YORK           CLEAR     39  35  86 CALM      29.94S
$$

PAZ038>040-043-044-047-048-054-055-060>062-067>071-250800-
EASTERN PENNSYLVANIA

CITY           SKY/WX    TMP DP  RH WIND       PRES   REMARKS
SCRANTON       CLEAR     42  31  64 CALM      29.91S
MOUNT POCONO   CLEAR     44  29  55 NW8       29.88S
ALLENTOWN      CLEAR     46  31  55 CALM      29.91R
QUAKERTOWN*    SUNNY     45  32  61 NW3       29.91S
READING        CLEAR     45  36  70 NW3       29.91S
LANCASTER      CLEAR     46  38  73 W5        29.93S
COATESVILLE    SUNNY     48  39  71 NW9       29.91F
POTTSTOWN      CLEAR     48  35  60 CALM      29.92S
BLUE BELL      CLEAR     46  37  71 CALM      29.90R
DOYLESTOWN     CLEAR     47  34  60 N3        29.89S
WILLOW GROVE   NOT AVBL
NORTH PHILA    CLEAR     50  34  54 N7        29.91S
PHILADELPHIA   PTCLDY    52  37  56 SW3       29.91R
$$



USA.gov is the U.S. government's official web portal to all federal, state and local government web resources and services.